Las Vegas, NV

3:15 AM PDT on March 28, 2017 (GMT -0700)
McCarran International

Weather History for KLAS - March, 2014

Change the Weather History Date:

Tuesday, March 25, 2014

  Actual Average Record
Temperature  
Mean Temperature 70 °F 62 °F  
Max Temperature 84 °F 73 °F 87 °F (1981)
Min Temperature 55 °F 51 °F 31 °F (1964)
Degree Days  
Heating Degree Days 0 5  
Month to date heating degree days 70 164  
Since 1 July heating degree days 1456 1855  
Cooling Degree Days 5 1  
Month to date cooling degree days 27 17  
Year to date cooling degree days 30 18  
Growing Degree Days 20 (Base 50)    
Moisture  
Dew Point 12 °F    
Average Humidity 14    
Maximum Humidity 22    
Minimum Humidity 5    
Precipitation  
Precipitation 0.00 in 0.01 in 0.50 in (1998)
Month to date precipitation 0.00 0.39  
Year to date precipitation 0.30 1.69  
Snow  
Snow 0.00 in 0.00 in 0.00 in (2015)
Month to date snowfall 0.0 0.0  
Since 1 July snowfall 0.0 0.3  
Snow Depth 0.00 in    
Sea Level Pressure  
Sea Level Pressure 29.74 in    
Wind  
Wind Speed 11 mph (SSW)    
Max Wind Speed 24 mph    
Max Gust Speed 33 mph    
Visibility 10 miles    
Events      
T = Trace of Precipitation, MM = Missing Value Source: NWS Daily Summary

Daily Weather History Graph

Daily Weather History Graph

Search for Another Location

Airport or City:

Trip Planner

Search our weather history database for the weather conditions in past years. The results will help you decide how hot, cold, wet, or windy it might be!

Date:

Astronomy

Mar. 25, 2014 Rise Set
Actual Time 6:36 AM PDT 6:56 PM PDT
Civil Twilight 6:11 AM PDT 7:22 PM PDT
Nautical Twilight 5:41 AM PDT 7:52 PM PDT
Astronomical Twilight 5:10 AM PDT 8:23 PM PDT
Moon 2:52 AM PDT (3/25) 1:40 PM PDT (3/25)
Length of Visible Light 13h 11m
Length of Day
12h 19m
Waning Crescent, 31% of the Moon is Illuminated
Mar 25
Waning Crescent
Mar 30
New
Apr 7
First Quarter
Apr 15
Full
Apr 22
Last Quarter

Hourly Weather History & Observations

Time (PDT) Temp. Dew Point Humidity Pressure Visibility Wind Dir Wind Speed Gust Speed Precip Events Conditions
12:56 AM 61.0 °F 14.0 °F 16% 29.90 in 10.0 mi South 8.1 mph - N/A   Clear
1:56 AM 60.1 °F 12.0 °F 15% 29.91 in 10.0 mi SSW 9.2 mph - N/A   Clear
2:56 AM 57.9 °F 14.0 °F 18% 29.89 in 10.0 mi SSW 9.2 mph - N/A   Clear
3:56 AM 57.0 °F 15.1 °F 19% 29.87 in 10.0 mi SSW 6.9 mph - N/A   Clear
4:56 AM 55.9 °F 14.0 °F 19% 29.87 in 10.0 mi SSW 11.5 mph - N/A   Clear
5:56 AM 55.9 °F 12.0 °F 18% 29.86 in 10.0 mi SSW 9.2 mph - N/A   Clear
6:56 AM 57.9 °F 10.9 °F 16% 29.86 in 10.0 mi SSW 11.5 mph - N/A   Clear
7:56 AM 61.0 °F 12.9 °F 15% 29.87 in 10.0 mi South 5.8 mph - N/A   Partly Cloudy
8:56 AM 64.0 °F 12.9 °F 14% 29.87 in 10.0 mi South 8.1 mph - N/A   Partly Cloudy
9:56 AM 68.0 °F 10.9 °F 11% 29.86 in 10.0 mi South 4.6 mph - N/A   Clear
10:56 AM 73.0 °F 7.0 °F 8% 29.84 in 10.0 mi Calm Calm - N/A   Clear
11:56 AM 75.0 °F 7.0 °F 7% 29.81 in 10.0 mi West 4.6 mph - N/A   Clear
12:56 PM 77.0 °F 7.0 °F 7% 29.76 in 10.0 mi SSE 6.9 mph - N/A   Clear
1:56 PM 79.0 °F 5.0 °F 6% 29.71 in 10.0 mi South 9.2 mph - N/A   Partly Cloudy
2:56 PM 82.0 °F 5.0 °F 5% 29.66 in 10.0 mi SSE 10.4 mph 17.3 mph N/A   Partly Cloudy
3:56 PM 84.0 °F 5.0 °F 5% 29.63 in 10.0 mi SSW 16.1 mph 26.5 mph N/A   Scattered Clouds
4:56 PM 82.0 °F 6.1 °F 6% 29.60 in 10.0 mi SSW 13.8 mph 24.2 mph N/A   Scattered Clouds
5:56 PM 80.1 °F 9.0 °F 7% 29.59 in 10.0 mi SSW 16.1 mph 24.2 mph N/A   Mostly Cloudy
6:56 PM 79.0 °F 8.1 °F 7% 29.57 in 10.0 mi SSW 13.8 mph 21.9 mph N/A   Mostly Cloudy
7:56 PM 77.0 °F 9.0 °F 7% 29.56 in 10.0 mi SSW 12.7 mph - N/A   Mostly Cloudy
8:56 PM 75.9 °F 12.0 °F 9% 29.55 in 10.0 mi SSW 17.3 mph - N/A   Scattered Clouds
9:56 PM 73.0 °F 21.9 °F 15% 29.56 in 10.0 mi SSW 18.4 mph 25.3 mph N/A   Mostly Cloudy
10:56 PM 72.0 °F 28.0 °F 20% 29.57 in 10.0 mi SSW 18.4 mph - N/A   Mostly Cloudy
11:56 PM 70.0 °F 28.9 °F 22% 29.55 in 9.0 mi SSW 19.6 mph 24.2 mph N/A   Scattered Clouds